Regional Weather Roundup
Issued by NWS Cleveland, OH

Home | Current Version | Previous Version | Text Only | Print | Product List | Glossary Off
Versions: 1 2 3 4 5 6 7 8 9 10 11 12 13 14 15 16 17 18 19 20 21 22 23 24 25 26 27 28 29 30 31 32 33 34 35 36 37 38 39 40 41 42 43 44 45 46 47 48 49 50

000
ASUS41 KCLE 080100
RWRCLE
OHIO REGIONAL WEATHER ROUNDUP
NATIONAL WEATHER SERVICE WILMINGTON, OH
800 PM EST WED DEC 07 2016

NOTE: "FAIR" INDICATES FEW OR NO CLOUDS BELOW 12,000 FEET WITH NO
SIGNIFICANT WEATHER AND/OR OBSTRUCTIONS TO VISIBILITY.

OHZ001>008-015>018-024>027-034-035-043-044-080200-
   NORTHWEST OHIO

CITY           SKY/WX    TMP DP  RH WIND       PRES   REMARKS
DEFIANCE       FAIR      32  23  69 W9        30.09S WCI  24
FINDLAY        CLOUDY    33  24  69 W12       30.07F WCI  24
TOLEDO EXPRESS FAIR      31  25  78 SW15      30.06F WCI  20
TOLEDO EXEC    CLOUDY    33  25  72 W10       30.07F WCI  25
LIMA           CLOUDY    32  26  78 W12       30.08F WCI  23
$$

OHZ009>014-019>023-028>033-038-089-080200-
   NORTHEAST OHIO

CITY           SKY/WX    TMP DP  RH WIND       PRES   REMARKS
CLE-HOPKINS    CLOUDY    36  23  59 SW9       30.08S
CLE-LAKEFRONT  CLOUDY    36  23  59 SW15      30.06S
CUY CO. ARPT   MOCLDY    36  25  64 SW12G21   30.06S
LORAIN-ELYRIA  CLOUDY    33  24  69 W9        30.06F WCI  25
ASHTABULA      CLOUDY    34  21  59 SW7       30.04F WCI  28
AKRON-CANTON   CLOUDY    35  21  56 W8        30.06S WCI  29
WOOSTER        NOT AVBL
MANSFIELD      CLOUDY    33  22  63 SW12      30.06S WCI  24
YOUNGSTOWN     CLOUDY    34  22  61 SW10      30.04F WCI  26
$$

OHZ042-051>053-060>062-070>072-077>081-080200-
  SOUTHWEST OHIO

CITY           SKY/WX    TMP DP  RH WIND       PRES   REMARKS
CINC-COVINGTON MOCLDY    34  24  67 CALM      30.15R
CINC-LUNKEN    CLOUDY    38  25  59 W9        30.18R
HAMILTON       CLOUDY    36  25  64 W7        30.17R
DAYTON         NOT AVBL
WRIGHT-PAT AFB MOCLDY    34  24  65 SW9       30.13R WCI  27
DAYTON GENERAL CLOUDY    34  22  61 W6        30.13R WCI  29
WILMINGTON     CLOUDY    34  23  64 W9        30.12R WCI  27
$$

OHZ036-037-039>041-045>050-054>059-063>069-073>076-082>088-080200-
  CENTRAL AND SOUTHEAST OHIO

CITY           SKY/WX    TMP DP  RH WIND       PRES   REMARKS
COLUMBUS       CLOUDY    35  25  66 W8        30.11S WCI  29
OSU AIRPORT    CLOUDY    34  26  72 SW7       30.11R WCI  28
BOLTON FIELD   NOT AVBL
RICKENBACK AFB NOT AVBL
NEWARK         CLOUDY    32  24  72 CALM      30.10S
MARION         CLOUDY    34  23  64 SW8       30.09S WCI  27
LANCASTER      CLOUDY    34  26  72 W3        30.11F
ZANESVILLE     CLOUDY    35  24  64 SW3       30.09F
NEW PHILLY     CLOUDY    35  24  64 W3        30.09F
$$




USA.gov is the U.S. government's official web portal to all federal, state and local government web resources and services.